This demonstration page uses our WeatherBlox Daily Observations layout. Learn more.

Left ArrowRight Arrow

41.55636, -103.73856

Hourly Observations for January 9, 2021

Temp ( °F °C ) Dew Point ( °F °C ) Humidity (%) Winds ( mph kmh ) Pressure ( in mb ) Visibility ( mi km ) Precip ( " mm )
12:56 am 00:56 Mostly Cloudy 24 -4.2 23 -4.8 96 96 Calm 30.28 1025 10 16.0934 0 0
1:56 am 01:56 Cloudy 24 -4.2 23 -5.1 94 94 SW 5 7 30.3 1026 10 16.0934 0 0
2:56 am 02:56 Mostly Cloudy 26 -3.4 24 -4.5 92 92 SW 6 9 30.29 1026 10 16.0934 0 0
3:56 am 03:56 Cloudy 26 -3.1 24 -4.3 92 92 WSW 7 11 30.31 1026 10 16.0934 0 0
4:56 am 04:56 Cloudy 27 -2.7 24 -4.4 88 88 SW 3 6 30.33 1027 10 16.0934 0 0
5:56 am 05:56 Mostly Cloudy 27 -2.8 23 -5 85 85 WSW 3 6 30.33 1027 10 16.0934 0 0
6:56 am 06:56 Partly Cloudy 25 -4.1 22 -5.4 91 91 Calm 30.35 1028 10 16.0934 0 0
7:56 am 07:56 Sunny 21 -5.9 20 -6.8 93 93 SSW 3 6 30.4 1030 10 16.0934 0 0
8:56 am 08:56 Mostly Cloudy 25 -4 22 -5.3 91 91 WSW 3 6 30.42 1030 10 16.0934 0 0
9:56 am 09:56 Cloudy 30 -1.3 23 -5.1 76 76 NW 7 11 30.38 1029 10 16.0934 0 0
10:56 am 10:56 Mostly Cloudy 32 0 26 -3.6 77 77 N 3 6 30.38 1029 10 16.0934 0 0
11:56 am 11:56 Cloudy 33 0.3 27 -2.8 80 80 NNE 7 11 30.36 1028 10 16.0934 0 0
12:56 pm 12:56 Cloudy 32 -0.1 27 -2.9 82 82 Calm 30.37 1029 10 16.0934 0 0
1:56 pm 13:56 Cloudy 32 -0.2 27 -2.8 83 83 NNE 3 6 30.37 1029 10 16.0934 0 0
2:56 pm 14:56 Cloudy 32 -0.2 27 -2.9 82 82 NE 8 13 30.39 1029 10 16.0934 0 0
3:56 pm 15:56 Cloudy 31 -0.4 25 -3.7 79 79 NE 5 7 30.4 1029 10 16.0934 0 0
4:56 pm 16:56 Cloudy with Light Snow Showers 30 -0.9 26 -3.1 85 85 ENE 6 9 30.42 1030 10 16.0934 0 0
5:56 pm 17:56 Cloudy 29 -1.6 26 -3.5 87 87 E 3 6 30.44 1031 10 16.0934 0 0
6:56 pm 18:56 Cloudy 29 -1.9 26 -3.3 90 90 Calm 30.45 1031 10 16.0934 0 0
7:56 pm 19:56 Mostly Cloudy 28 -2.2 26 -3.5 91 91 W 3 6 30.46 1032 10 16.0934 0 0
8:56 pm 20:56 Mostly Cloudy 26 -3.1 25 -3.7 96 96 Calm 30.45 1031 10 16.0934 0 0
9:56 pm 21:56 Cloudy with Light Snow Showers 25 -4.1 24 -4.6 96 96 SSW 6 9 30.45 1031 10 16.0934 0 0
10:56 pm 22:56 Cloudy 26 -3.4 24 -4.4 93 93 Calm 30.43 1031 10 16.0934 0 0
11:56 pm 23:56 Cloudy with Light Snow Showers 27 -3 25 -4.1 92 92 Calm 30.42 1030 10 16.0934 0 0

Powered by AerisWeather